Date String (YYYY-MM-DD hh:mm:ss) UTC,Instrument flags,Ambient pressure (hPa),Sample flow (lpm),Bypass flow (lpm),Sample temperature (°C),Ambient temperature (°C),ASC tube jacket temperature (°C),LED temperature (°C),Box temperature (°C),Sample RH (%),Span deviation,Mass concentration (μg/m³),Mass concentration (μg/m³),Mass concentration (μg/m³)
DateTimeUTC,F1_M11,P_M11,Q1_M11,Q2_M11,T1_M11,T2_M11,T3_M11,T4_M11,T5_M11,U1_M11,ZSPAN_M11,X2_M11,X0_M11,X1_M11
2023-01-11 06:00:00,,0817.1,4.99,0.00,22.3,21.0,00.0,31.2,24.1,16.5,0000.0,0005.60,0009.43,0005.37
2023-01-11 06:01:00,,0817.0,4.99,0.00,22.3,20.9,00.0,31.2,24.1,16.5,0000.0,0005.70,0009.70,0005.43
2023-01-11 06:02:00,,0816.8,5.00,0.00,22.3,21.0,00.0,31.2,24.1,16.6,0000.0,0005.76,0010.40,0005.48
2023-01-11 06:03:00,,0816.8,5.00,0.00,22.3,20.9,00.0,31.2,24.0,16.5,0000.0,0005.82,0010.49,0005.54
2023-01-11 06:04:00,,0816.7,4.99,0.00,22.3,20.9,00.0,31.2,24.0,16.6,0000.0,0005.93,0010.64,0005.64
2023-01-11 06:05:00,,0816.6,5.01,0.00,22.3,20.8,00.0,31.2,24.0,16.7,0000.0,0006.03,0010.27,0005.74
2023-01-11 06:06:00,,0816.7,5.01,0.00,22.2,20.8,00.0,31.2,23.9,16.7,0000.0,0006.09,0009.69,0005.81
2023-01-11 06:07:00,,0816.7,5.01,0.00,22.2,20.7,00.0,31.2,23.9,16.7,0000.0,0006.14,0009.73,0005.88
2023-01-11 06:08:00,,0817.0,4.99,0.00,22.2,20.6,00.0,31.1,23.9,16.8,0000.0,0006.24,0009.97,0005.93
2023-01-11 06:09:00,,0816.8,5.01,0.00,22.2,20.5,00.0,31.1,23.9,16.8,0000.0,0006.29,0010.04,0005.99
2023-01-11 06:10:00,,0816.8,5.01,0.00,22.2,20.5,00.0,31.1,23.8,16.9,0000.0,0006.35,0010.12,0006.06
2023-01-11 06:11:00,,0816.8,5.01,0.00,22.1,20.4,00.0,31.1,23.8,17.0,0000.0,0006.44,0010.74,0006.15
2023-01-11 06:12:00,,0816.8,5.00,0.00,22.1,20.4,00.0,31.1,23.8,17.0,0000.0,0006.56,0010.95,0006.26
2023-01-11 06:13:00,,0816.8,4.99,0.00,22.1,20.4,00.0,31.1,23.8,17.1,0000.0,0006.71,0010.58,0006.39
2023-01-11 06:14:00,,0816.9,5.00,0.00,22.1,20.4,00.0,31.1,23.8,17.2,0000.0,0006.85,0010.78,0006.51
2023-01-11 06:15:00,,0817.0,5.00,0.00,22.1,20.4,00.0,31.1,23.8,17.2,0000.0,0006.95,0010.88,0006.61
2023-01-11 06:16:00,,0817.1,5.00,0.00,22.1,20.4,00.0,31.0,23.8,17.2,0000.0,0007.03,0010.95,0006.69
2023-01-11 06:17:00,,0817.0,5.01,0.00,22.1,21.2,00.0,31.0,24.0,17.2,0000.0,0007.09,0011.03,0006.76
2023-01-11 06:18:00,,0817.0,5.00,0.00,22.2,22.3,00.0,31.0,24.2,17.2,0000.0,0007.16,0011.33,0006.82
2023-01-11 06:19:00,,0817.0,4.99,0.00,22.3,22.8,00.0,31.0,24.4,17.1,0000.0,0007.25,0011.84,0006.90
2023-01-11 06:20:00,,0816.9,4.99,0.00,22.4,22.3,00.0,31.1,24.3,17.1,0000.0,0007.38,0014.03,0007.01
2023-01-11 06:21:00,,0817.0,5.01,0.00,22.4,21.9,00.0,31.1,24.2,17.1,0000.0,0007.52,0015.79,0007.13
2023-01-11 06:22:00,,0816.9,5.00,0.00,22.4,21.6,00.0,31.1,24.2,17.1,0000.0,0007.63,0015.77,0007.24
2023-01-11 06:23:00,,0816.9,4.99,0.00,22.3,21.3,00.0,31.2,24.1,17.2,0000.0,0007.74,0016.11,0007.35
2023-01-11 06:24:00,,0817.0,5.00,0.00,22.3,21.1,00.0,31.2,24.0,17.2,0000.0,0007.89,0016.61,0007.46
2023-01-11 06:25:00,,0817.0,5.01,0.00,22.3,20.9,00.0,31.2,24.0,17.2,0000.0,0008.00,0016.84,0007.57
2023-01-11 06:26:00,,0817.0,5.00,0.00,22.3,20.8,00.0,31.2,24.0,17.1,0000.0,0008.09,0017.00,0007.65
2023-01-11 06:27:00,,0817.1,5.00,0.00,22.2,20.7,00.0,31.2,23.9,17.1,0000.0,0008.19,0017.33,0007.74
2023-01-11 06:28:00,,0817.1,5.00,0.00,22.2,20.6,00.0,31.2,23.9,17.2,0000.0,0008.27,0017.67,0007.83
2023-01-11 06:29:00,,0817.1,4.99,0.00,22.2,20.5,00.0,31.2,23.9,17.1,0000.0,0008.34,0017.53,0007.91
2023-01-11 06:30:00,,0817.1,5.00,0.00,22.2,20.5,00.0,31.1,23.9,16.9,0000.0,0008.43,0017.15,0008.00
2023-01-11 06:31:00,,0817.1,4.99,0.00,22.2,20.5,00.0,31.1,23.8,17.2,0000.0,0008.47,0014.94,0008.06
2023-01-11 06:32:00,,0817.1,5.00,0.00,22.2,20.5,00.0,31.1,23.9,17.3,0000.0,0008.49,0013.63,0008.09
2023-01-11 06:33:00,,0817.1,4.99,0.00,22.1,20.5,00.0,31.1,23.9,17.3,0000.0,0008.51,0013.37,0008.11
2023-01-11 06:34:00,,0817.1,4.99,0.00,22.1,20.5,00.0,31.1,23.9,17.3,0000.0,0008.50,0012.93,0008.12
2023-01-11 06:35:00,,0817.1,4.99,0.00,22.1,20.5,00.0,31.1,23.8,17.1,0000.0,0008.46,0012.59,0008.13
2023-01-11 06:36:00,,0817.1,5.00,0.00,22.1,20.5,00.0,31.1,23.8,17.1,0000.0,0008.45,0012.48,0008.15
2023-01-11 06:37:00,,0817.1,5.01,0.00,22.1,20.5,00.0,31.1,23.8,17.3,0000.0,0008.47,0012.42,0008.17
2023-01-11 06:38:00,,0817.2,5.01,0.00,22.1,20.5,00.0,31.0,23.8,17.3,0000.0,0008.50,0012.68,0008.19
2023-01-11 06:39:00,,0817.3,5.00,0.00,22.1,20.4,00.0,31.0,23.8,17.2,0000.0,0008.57,0012.61,0008.25
2023-01-11 06:40:00,,0817.3,4.99,0.00,22.1,20.4,00.0,31.0,23.8,17.4,0000.0,0008.60,0012.58,0008.29
2023-01-11 06:41:00,,0817.3,5.01,0.00,22.1,20.4,00.0,31.0,23.8,17.4,0000.0,0008.61,0012.49,0008.33
2023-01-11 06:42:00,,0817.2,4.99,0.00,22.0,20.4,00.0,31.0,23.8,17.4,0000.0,0008.67,0012.58,0008.37
2023-01-11 06:43:00,,0817.1,5.00,0.00,22.0,20.4,00.0,31.0,23.8,17.4,0000.0,0008.72,0012.54,0008.43
2023-01-11 06:44:00,,0817.0,5.01,0.00,22.0,20.4,00.0,31.0,23.7,17.3,0000.0,0008.74,0012.45,0008.48
2023-01-11 06:45:00,,0817.0,5.00,0.00,22.0,20.4,00.0,31.0,23.7,17.4,0000.0,0008.77,0012.33,0008.51
2023-01-11 06:46:00,,0817.1,4.99,0.00,22.0,20.3,00.0,31.0,23.7,17.2,0000.0,0008.81,0012.38,0008.53
2023-01-11 06:47:00,,0817.0,5.00,0.00,22.0,20.3,00.0,31.0,23.7,17.2,0000.0,0008.83,0012.59,0008.54
2023-01-11 06:48:00,,0816.9,5.00,0.00,22.0,20.3,00.0,30.9,23.6,17.4,0000.0,0008.84,0012.87,0008.55
2023-01-11 06:49:00,,0816.8,5.01,0.00,22.0,20.2,00.0,30.9,23.6,17.4,0000.0,0008.78,0012.54,0008.51
2023-01-11 06:50:00,,0816.8,5.01,0.00,21.9,20.2,00.0,30.9,23.6,17.4,0000.0,0008.67,0012.30,0008.39
2023-01-11 06:51:00,,0816.8,5.00,0.00,21.9,20.2,00.0,30.9,23.6,17.2,0000.0,0008.58,0012.23,0008.28
2023-01-11 06:52:00,,0816.8,5.01,0.00,21.9,20.2,00.0,30.9,23.5,17.4,0000.0,0008.45,0012.67,0008.15
2023-01-11 06:53:00,,0816.7,5.01,0.00,21.9,20.2,00.0,30.9,23.5,17.4,0000.0,0008.30,0012.74,0008.02
2023-01-11 06:54:00,,0816.8,4.98,0.00,21.9,20.2,00.0,30.9,23.5,17.6,0000.0,0008.16,0012.56,0007.87
2023-01-11 06:55:00,,0816.8,5.02,0.00,21.8,20.2,00.0,30.8,23.5,17.6,0000.0,0008.02,0012.47,0007.73
2023-01-11 06:56:00,,0816.8,5.00,0.00,21.8,20.2,00.0,30.8,23.5,17.6,0000.0,0007.89,0012.34,0007.58
2023-01-11 06:57:00,,0816.8,5.00,0.00,21.8,20.2,00.0,30.8,23.5,17.4,0000.0,0007.72,0012.08,0007.43
2023-01-11 06:58:00,,0817.0,5.00,0.00,21.8,20.1,00.0,30.8,23.5,17.4,0000.0,0007.57,0011.65,0007.27
2023-01-11 06:59:00,,0817.1,4.99,0.00,21.8,20.2,00.0,30.8,23.4,17.2,0000.0,0007.40,0011.26,0007.11
